Lapse_Rate
4.6 5.7 6.3 6.0 6.4 6.5 6.5 6.5 6.5 6.5 6.5 6.4 6.9 6.5 6.5 6.6 6.5 6.5 7.7 6.1 6.5 6.6 7.8 6.6 6.0 5.9 6.4 6.4 6.4 6.4 6.3 6.4 6.5 6.4 6.5 6.3 6.4 6.6 6.6 6.6 6.6 6.5 6.7 7.7 7.3 7.0 7.1 6.5 6.3
5.2 7.7 5.7 5.0 6.5 6.5 6.5 6.5 6.5 6.5 6.5 7.0 7.2 6.8 6.6 6.5 7.7 7.9 6.7 6.3 6.1 6.6 8.3 6.9 6.2 5.8 6.0 6.3 6.3 6.5 6.5 6.4 6.6 6.7 6.5 6.2 6.3 6.7 6.8 6.7 6.7 6.6 6.2 7.4 6.8 6.8 6.9 6.2 5.9
5.3 8.1 5.5 6.5 6.5 6.5 6.5 6.5 6.5 6.3 7.0 6.6 6.7 6.7 6.9 6.7 7.4 7.9 8.1 6.9 6.9 7.3 8.4 5.9 6.4 6.0 6.1 6.1 6.1 6.4 6.7 6.6 6.6 6.6 6.5 6.3 6.3 6.7 6.8 6.7 6.6 6.5 6.0 5.8 7.2 6.9 6.8 6.4 5.7
6.9 5.8 5.2 6.5 6.5 6.5 6.5 6.5 6.6 6.3 6.8 7.1 6.9 6.4 7.3 7.9 8.1 8.0 7.1 6.5 6.4 6.3 8.0 5.8 6.0 6.3 5.9 5.9 5.9 6.1 6.4 6.5 6.3 6.2 5.9 6.1 6.5 6.5 6.8 6.7 6.3 6.3 6.2 5.8 6.7 7.3 7.0 6.6 6.1
5.6 5.2 6.5 6.5 6.5 6.5 6.5 6.5 6.7 6.5 6.6 6.3 6.8 6.3 6.4 8.1 7.7 7.8 7.4 6.3 6.7 6.4 7.4 6.3 6.3 6.3 6.2 5.7 5.9 6.0 6.1 6.2 6.3 6.2 6.1 6.5 6.5 6.4 6.6 6.6 6.3 6.3 6.3 6.5 6.1 6.7 7.0 6.6 6.3
5.2 5.1 6.5 6.5 6.5 6.5 6.4 6.6 6.4 6.4 6.8 6.2 6.5 6.1 6.5 7.5 7.2 7.6 6.6 7.6 5.1 5.2 5.9 6.4 6.6 6.0 6.1 6.1 5.8 5.7 5.9 6.0 6.3 6.2 6.4 6.4 6.4 6.3 6.3 6.3 6.3 6.5 6.5 6.6 6.0 6.5 6.7 6.7 6.7
6.3 6.5 6.5 6.5 6.5 6.5 6.5 6.7 5.8 6.1 6.5 6.2 6.3 6.5 6.3 6.4 7.8 8.2 6.7 6.4 5.5 5.0 4.4 4.5 4.6 7.1 6.8 6.2 6.0 5.9 5.9 6.0 6.0 5.8 6.0 6.2 6.1 6.0 5.7 5.6 5.3 5.9 6.7 6.2 6.0 6.2 6.6 6.7 6.6
5.6 6.6 6.5 6.5 6.5 6.5 6.6 6.7 7.2 6.4 6.4 7.7 7.5 6.3 6.0 6.8 8.2 8.4 6.7 7.0 6.5 4.9 4.5 4.4 5.1 5.2 5.0 7.2 6.3 6.0 6.1 6.0 5.8 5.8 6.0 6.7 6.0 5.7 5.7 5.4 5.7 6.4 6.4 6.1 6.1 5.8 6.2 6.5 6.6
7.8 6.5 6.5 6.5 6.5 6.5 6.8 6.4 7.0 7.4 6.7 7.4 7.6 6.9 7.3 8.0 8.5 7.9 7.3 5.9 5.6 5.5 4.3 4.8 4.1 4.8 4.4 6.1 6.4 6.6 6.1 5.9 5.8 5.7 6.0 6.2 5.7 5.6 5.3 6.0 6.0 6.0 6.1 6.0 6.1 6.1 6.3 6.8 6.6
6.0 6.5 6.5 6.4 6.3 6.5 6.4 6.6 6.4 6.5 6.1 6.3 6.6 7.1 8.2 8.4 7.9 7.4 7.4 5.5 5.6 5.3 4.5 4.0 4.2 4.5 4.5 5.1 5.8 5.3 6.2 6.5 6.2 6.1 5.5 5.9 6.2 6.2 6.2 5.6 5.4 5.5 5.9 5.8 6.4 6.5 6.6 6.4 5.8
6.2 6.5 6.5 6.4 6.6 6.7 6.7 6.6 7.3 6.4 6.5 5.7 5.7 6.7 7.0 8.1 7.8 7.8 6.9 5.7 6.3 5.9 4.4 4.4 4.4 4.8 4.7 4.8 5.4 5.4 5.2 4.7 5.3 6.5 5.6 5.9 6.1 6.1 5.9 4.6 4.7 5.1 5.7 5.7 6.5 6.5 6.4 6.8 6.1
6.5 6.4 6.4 6.8 7.0 6.9 6.5 6.9 6.5 6.1 6.6 6.9 7.2 7.0 7.8 7.8 7.7 6.9 6.7 6.4 6.3 6.1 5.3 4.6 4.1 4.1 4.5 4.9 4.5 4.9 4.9 4.8 4.4 4.7 4.8 4.5 4.2 5.5 6.1 5.4 5.1 5.1 5.2 5.5 6.2 6.5 7.0 7.3 7.0
6.5 6.4 6.9 7.0 7.1 6.9 7.0 6.2 6.6 5.7 6.3 6.6 7.6 7.7 7.6 7.9 7.3 7.1 7.5 7.4 6.2 6.2 5.6 4.7 4.1 3.9 4.4 4.1 4.3 4.6 4.2 4.9 4.9 4.3 4.3 3.7 4.1 4.5 5.2 6.5 6.1 6.4 7.0 7.1 6.2 6.1 6.6 6.8 7.0
6.8 6.7 6.7 7.0 6.9 6.9 6.6 6.3 6.3 6.5 7.1 6.6 7.5 7.4 7.6 7.3 6.9 6.9 7.7 6.7 6.7 6.6 6.1 5.3 4.9 4.5 4.9 3.9 3.8 3.7 4.8 5.4 5.7 4.7 4.1 3.9 3.7 3.6 3.5 3.8 5.4 5.5 6.7 7.1 6.5 6.1 5.7 6.0 6.1
6.9 6.5 6.5 6.4 6.8 6.5 6.4 6.5 6.5 6.5 7.2 6.7 7.1 7.1 7.7 7.4 7.4 6.9 6.2 6.2 6.7 6.1 5.6 5.0 5.2 4.8 4.0 3.9 3.9 4.1 4.6 5.4 4.7 6.4 7.0 4.3 4.0 4.0 3.7 3.9 4.2 3.7 4.4 5.6 6.0 5.2 4.7 4.9 6.0
6.5 6.5 6.5 6.5 6.4 6.2 6.4 6.5 6.4 6.9 7.0 6.4 6.1 6.2 6.8 7.5 7.4 6.2 6.6 6.9 7.0 6.4 5.4 5.2 5.5 4.2 4.0 3.8 3.8 4.2 4.8 5.0 4.7 6.0 7.5 6.2 4.3 4.5 3.9 4.2 3.7 3.3 3.9 3.5 4.1 4.1 3.7 3.1 4.6
6.5 6.5 6.5 6.5 6.6 6.5 6.5 6.5 6.2 6.8 6.7 5.8 5.7 5.5 5.5 6.1 5.8 6.7 7.0 6.9 7.4 6.5 5.9 5.1 4.8 4.4 4.0 3.8 4.2 4.7 5.9 5.6 5.8 6.2 7.3 7.0 6.1 4.8 5.0 4.2 4.1 3.9 4.0 3.8 3.6 4.1 4.0 3.4 3.0
6.5 6.5 6.5 6.5 6.5 6.5 6.5 6.5 6.5 5.7 6.0 5.5 5.3 5.1 5.3 5.5 6.0 6.7 7.3 7.5 6.9 6.5 6.1 5.8 5.3 4.7 4.2 3.4 3.8 3.7 4.4 5.7 7.1 6.6 6.2 7.5 7.1 5.4 5.0 4.5 4.2 3.8 3.6 3.4 4.6 4.9 4.0 4.1 3.4
6.5 6.5 6.5 6.5 6.5 6.5 6.5 6.5 6.5 6.0 6.0 5.7 6.4 5.1 4.7 6.2 6.6 7.4 7.6 7.9 7.2 6.9 6.1 5.5 5.1 4.6 4.0 3.5 3.2 3.3 3.2 3.8 4.8 5.2 5.3 5.2 6.3 6.5 5.2 4.9 4.4 4.4 3.9 3.7 3.8 3.7 4.6 3.4 2.6
6.5 6.5 6.5 6.5 6.5 6.5 6.5 6.5 6.5 6.3 6.4 5.8 5.4 4.5 5.0 5.8 6.2 7.3 7.3 7.0 7.0 6.3 5.5 5.5 5.5 5.1 4.9 4.5 4.1 4.1 4.8 6.0 4.6 3.8 4.9 5.2 5.6 7.2 5.8 5.3 4.7 4.2 3.9 3.3 3.4 4.4 4.2 3.0 2.6
6.5 6.5 6.5 6.5 6.5 6.5 6.5 6.5 6.5 6.4 6.1 6.2 5.9 5.6 5.5 5.4 5.8 6.3 6.5 5.7 5.7 5.5 5.1 5.8 5.9 5.6 5.3 4.9 4.3 4.2 4.4 5.1 5.0 7.1 5.6 6.8 6.7 6.9 5.8 5.3 4.7 4.1 4.1 3.8 3.8 4.2 4.6 3.4 3.2
6.5 6.5 6.5 6.5 6.5 6.5 6.5 6.5 6.5 6.5 6.5 6.3 5.2 5.1 5.3 5.7 6.1 6.5 6.5 6.1 6.1 5.9 5.8 6.1 6.4 6.3 6.8 5.8 4.9 4.4 4.3 4.8 5.3 7.4 6.5 5.1 6.7 6.7 6.7 5.8 5.4 4.5 4.1 4.1 3.8 4.0 4.9 4.7 4.3
6.5 6.5 6.5 6.5 6.5 6.5 6.5 6.5 6.5 6.5 6.5 6.5 5.5 5.4 5.4 5.8 6.2 6.5 6.5 6.9 6.8 5.9 6.0 6.5 6.9 6.6 6.4 5.8 5.8 4.9 4.5 4.6 4.9 6.5 7.4 7.1 7.1 7.2 6.8 6.4 6.0 5.1 4.6 4.4 4.1 4.3 5.2 4.8 5.0
6.5 6.5 6.5 6.5 6.5 6.5 6.5 6.5 6.5 6.5 6.5 6.5 5.9 5.6 6.0 6.4 6.5 7.0 7.1 7.4 7.0 6.8 7.9 6.7 6.6 6.6 6.4 5.8 5.6 5.8 5.5 5.0 5.1 5.3 6.5 6.5 6.8 6.9 7.2 7.0 5.8 5.6 5.0 5.4 4.3 4.8 4.9 5.4 5.3
6.5 6.5 6.5 6.5 6.5 6.5 6.5 6.5 6.5 6.5 6.5 6.3 6.2 5.5 5.7 6.3 6.4 6.5 6.7 7.0 6.8 6.7 7.1 7.3 6.5 6.2 6.3 6.0 6.1 7.7 7.0 6.5 6.6 7.2 5.9 6.8 6.6 6.6 6.3 6.5 6.0 5.0 5.2 5.1 5.0 4.9 4.8 4.3 4.4
6.5 6.5 6.5 6.5 6.5 6.5 6.5 6.5 6.5 6.5 5.7 5.9 6.4 6.1 6.3 6.5 6.5 6.5 6.8 7.4 6.9 7.1 7.0 7.2 7.2 7.1 6.5 6.2 6.7 7.7 7.2 7.1 6.9 7.0 6.7 6.9 6.6 6.6 6.4 5.9 6.2 5.8 5.3 5.3 5.1 5.2 5.3 5.2 5.2
6.5 6.5 6.5 6.5 6.5 6.5 6.5 6.5 6.5 6.5 6.5 6.0 6.2 6.4 6.2 6.4 6.5 6.5 6.7 6.7 7.1 6.5 7.5 7.7 6.7 8.5 8.1 6.5 6.1 6.9 7.7 6.8 6.6 6.2 5.7 5.7 6.5 6.6 6.4 5.9 5.3 5.1 5.2 5.2 5.2 5.0 4.7 5.2 4.9
6.5 6.5 6.5 6.5 6.5 6.5 6.5 6.5 6.5 6.5 6.5 6.5 6.4 6.1 6.4 6.7 6.8 6.8 6.7 6.8 6.7 6.7 7.6 7.0 6.2 7.1 6.6 6.2 6.4 6.9 7.2 6.3 5.9 5.3 4.9 4.9 6.1 6.1 6.2 5.8 5.7 5.2 5.1 5.1 4.9 4.9 4.9 5.0 4.9
6.5 6.5 6.5 6.5 6.5 6.5 6.5 6.5 6.5 6.5 6.5 6.5 6.4 6.6 6.7 6.8 6.7 6.6 6.6 6.6 6.7 6.5 6.3 6.3 6.2 6.5 6.3 5.8 5.8 6.3 6.7 6.3 5.4 5.0 5.0 5.0 5.5 6.0 5.9 5.5 5.8 5.2 5.1 5.1 5.0 4.5 4.8 5.3 4.6
6.5 6.5 6.5 6.5 6.5 6.5 6.5 6.5 6.5 6.5 6.3 6.6 6.7 7.0 7.1 6.8 6.4 6.4 6.4 6.2 6.2 6.1 6.1 6.1 6.0 6.2 6.6 6.7 6.0 6.4 6.7 6.4 5.8 4.6 4.3 4.7 5.5 5.6 6.0 5.5 5.3 5.0 4.9 4.9 4.5 4.4 4.3 4.4 4.3
Wind_Speed
13 11 4 1 1 2 5 3 5 12 5 6 6 6 10 9 7 2 4 6 8 8 2 12 13 9 6 7 6 8 10 10 10 10 11 12 13 12 11 10 9 9 8 9 8 8 11 16 16
9 4 1 3 0 3 2 1 10 7 4 4 2 5 6 5 6 3 3 8 7 9 7 15 13 10 8 6 5 5 7 10 9 9 10 11 12 13 11 10 9 8 9 11 11 13 13 18 17
9 2 1 2 3 3 2 7 7 6 3 6 2 8 5 4 6 3 3 6 10 7 3 16 12 10 7 6 5 4 5 8 8 8 8 8 10 11 12 11 9 8 10 12 14 14 14 16 17
3 1 3 0 4 4 7 7 2 7 3 4 4 8 6 6 4 5 7 6 8 8 6 17 15 10 7 6 5 4 4 4 5 7 7 9 10 11 12 12 11 11 11 11 12 14 14 14 16
3 3 3 1 7 5 7 5 4 5 2 6 4 6 7 4 8 7 7 5 9 7 12 10 10 9 7 7 6 4 4 4 5 6 8 8 9 11 12 13 10 10 10 10 11 14 14 13 14
3 1 3 3 7 6 6 5 6 4 2 6 2 3 5 8 8 5 7 8 11 10 14 11 6 6 6 5 5 6 6 5 5 6 8 9 10 11 13 12 11 8 9 9 7 14 15 14 14
3 2 4 5 7 4 5 6 7 6 3 6 7 4 7 10 6 5 7 8 8 10 10 12 15 1 5 6 6 6 6 6 7 7 8 9 11 15 18 15 11 10 8 8 8 10 14 14 14
3 3 2 6 4 4 4 3 3 5 6 1 3 4 5 5 4 4 7 6 7 7 6 8 12 14 14 9 11 10 9 9 8 8 10 12 16 20 18 16 15 10 8 8 7 6 11 13 15
2 3 5 4 4 4 3 5 4 2 4 1 3 5 6 5 4 5 4 6 7 6 8 8 6 11 13 13 2 8 8 9 9 11 12 10 13 14 16 14 13 11 8 5 6 7 9 12 13
3 3 5 5 7 5 5 2 5 5 3 4 5 7 4 4 5 5 3 6 7 7 6 7 8 8 8 9 11 9 8 7 11 12 12 12 14 13 14 16 17 13 10 7 6 5 11 15 13
6 3 6 6 6 5 2 2 1 4 2 7 6 4 7 3 3 4 6 8 7 6 6 7 7 11 11 9 5 6 9 10 11 8 15 15 12 13 12 13 12 10 9 7 7 5 10 13 13
5 5 5 2 3 3 3 4 4 6 3 6 5 5 3 3 4 6 6 7 8 7 6 7 8 7 10 12 11 11 3 4 6 7 3 1 1 3 10 9 11 12 14 10 12 10 12 10 16
6 5 2 3 3 4 5 6 5 7 7 8 5 4 4 3 5 6 6 6 8 7 7 7 7 7 7 6 8 8 8 6 1 1 2 1 1 3 6 5 10 9 14 8 9 10 3 1 10
3 2 3 2 1 3 4 6 5 2 3 8 4 2 1 5 6 7 5 7 8 7 7 7 7 7 9 5 6 5 10 11 8 2 1 1 3 1 6 5 1 6 6 5 11 6 4 1 8
1 3 4 5 1 2 5 4 5 2 3 7 5 6 2 5 5 5 7 8 8 5 6 7 7 9 7 8 7 8 9 11 8 8 7 5 4 6 9 4 4 3 8 6 8 8 9 2 7
4 3 3 3 4 2 3 3 7 5 3 5 8 7 6 5 5 9 8 7 6 6 7 6 6 7 7 7 7 7 10 8 9 13 4 6 7 7 6 5 5 9 9 8 3 4 3 4 5
4 3 3 3 2 4 2 4 5 6 6 6 7 7 8 8 9 8 8 6 6 6 6 7 7 7 7 6 7 8 10 6 8 12 7 9 8 10 7 5 7 12 8 6 6 4 4 4 3
4 4 6 5 3 4 7 10 6 6 7 7 7 7 6 9 9 9 7 5 6 6 6 6 6 7 7 5 5 5 6 6 9 7 9 5 9 11 9 6 6 7 4 5 3 8 3 5 6
6 7 8 5 5 3 6 7 5 6 6 6 3 6 7 13 8 6 5 4 6 5 7 7 7 7 5 4 4 3 4 5 6 9 12 16 13 12 10 4 5 7 5 5 5 3 6 3 3
5 7 6 3 3 4 6 7 6 5 3 5 6 10 11 8 7 5 5 5 4 6 7 7 7 7 5 4 4 3 4 3 3 5 9 12 15 9 7 7 5 7 5 6 8 7 3 1 6
6 1 4 4 9 8 6 3 7 6 5 8 11 11 11 10 9 8 8 8 8 7 7 6 6 7 6 6 4 4 5 4 3 4 4 4 12 9 8 7 5 6 6 7 9 8 11 4 5
4 6 5 7 4 3 2 3 5 8 7 8 9 10 9 9 8 8 8 8 8 6 7 7 7 6 6 7 5 6 4 5 4 5 4 5 12 9 7 9 8 7 5 8 9 9 9 6 9
3 5 7 6 5 5 4 2 4 9 8 8 8 8 8 8 8 8 8 8 7 8 7 6 6 7 7 7 7 5 5 4 4 5 7 5 6 7 5 5 7 7 5 7 9 9 10 6 6
8 7 7 4 3 2 2 3 3 4 5 7 7 8 8 8 8 8 8 8 7 7 8 7 8 7 7 7 7 7 7 7 6 6 7 5 3 4 5 6 4 6 7 7 7 8 9 9 7
4 5 3 3 2 3 5 3 1 8 8 9 8 8 9 8 7 7 8 8 9 9 8 8 8 8 7 8 9 13 12 10 10 11 5 9 3 4 6 6 6 4 7 8 7 9 9 7 5
4 3 3 4 2 4 3 4 2 8 8 8 8 8 8 7 7 7 7 7 6 8 9 9 10 10 9 9 11 12 11 6 7 7 7 7 7 4 5 6 6 6 6 8 8 7 7 8 8
2 1 3 3 4 2 4 4 3 7 7 7 7 7 6 7 7 7 8 7 7 8 9 8 11 12 12 8 7 10 12 11 10 11 9 9 9 5 6 5 6 5 5 6 6 6 7 7 7
3 4 2 1 3 4 4 4 2 8 6 6 5 5 5 6 6 5 4 5 5 5 6 7 6 10 7 9 9 8 12 13 11 11 11 11 10 7 6 5 6 7 8 7 7 4 5 8 6
2 3 4 1 3 3 4 1 4 7 6 3 3 4 4 4 4 4 3 3 3 3 5 6 7 7 7 6 9 11 12 14 9 11 12 12 10 7 5 5 5 7 7 6 6 6 7 8 6
0 4 5 2 2 2 1 4 6 6 6 5 1 1 3 5 6 5 6 6 7 6 7 7 7 8 9 9 8 12 12 13 12 12 13 13 6 5 5 6 6 5 6 7 7 7 7 7 6
Wind_Direction
286 243 244 305 29 178 265 69 22 25 50 18 10 8 89 41 24 30 284 21 329 320 90 144 132 131 120 104 96 130 146 153 159 163 158 150 145 139 133 127 122 123 107 112 116 144 127 111 110
299 241 297 265 65 203 42 28 71 51 356 279 120 316 58 86 34 85 357 334 312 302 286 142 140 135 136 125 114 122 151 160 169 173 170 165 155 150 146 138 130 123 114 109 104 120 122 117 114
269 272 249 207 227 40 83 45 75 85 18 340 128 53 24 43 81 111 130 336 323 289 329 128 143 146 148 146 143 146 164 163 168 172 169 176 166 162 159 153 140 122 114 109 119 124 121 121 123
293 243 286 321 102 58 69 65 6 149 178 77 339 95 98 33 53 39 57 3 341 355 142 136 150 152 155 158 158 173 172 160 165 174 174 183 184 175 172 161 145 136 123 123 133 129 126 125 127
253 279 259 227 73 92 73 76 292 94 97 38 316 86 103 77 77 42 357 57 19 348 87 113 128 136 164 171 178 187 198 208 196 189 190 204 181 181 191 170 146 139 138 137 142 142 140 137 136
286 214 310 143 91 77 80 15 320 57 51 32 3 83 99 105 61 49 21 22 49 21 22 26 119 137 156 176 187 187 197 219 218 217 206 196 193 187 177 157 139 144 149 151 138 157 153 151 148
291 306 353 63 104 148 65 325 34 357 308 55 329 319 137 86 78 65 64 29 73 55 42 29 8 245 197 206 205 211 209 206 219 220 214 206 195 172 158 151 143 183 169 160 155 166 165 163 158
294 294 207 358 174 88 80 324 16 338 45 351 335 360 73 53 21 74 94 56 62 64 62 49 26 24 352 256 226 210 217 220 222 223 216 212 172 163 162 156 169 169 173 166 164 170 185 172 162
300 304 75 33 15 85 75 341 126 111 292 78 30 34 79 98 3 49 84 73 46 47 38 28 38 15 9 20 20 230 224 229 234 231 229 214 180 166 153 159 161 162 168 169 172 179 170 164 149
8 41 42 15 25 52 95 329 9 338 274 245 145 114 120 42 60 7 56 77 66 38 41 29 26 11 8 11 14 7 333 243 226 219 205 189 176 178 172 169 162 166 170 184 186 192 165 146 141
355 70 132 69 48 13 14 257 82 295 259 74 27 97 115 53 54 18 13 94 91 77 49 31 23 25 14 355 342 40 15 347 312 251 184 196 189 154 147 149 155 164 169 188 193 173 168 189 153
140 46 359 133 64 337 338 312 271 226 251 96 81 73 84 237 129 56 56 72 87 64 66 47 29 23 15 11 6 354 5 15 342 350 345 176 197 215 163 166 167 173 179 192 176 189 203 217 151
82 123 130 110 209 265 319 258 257 281 274 128 97 138 222 151 102 98 102 84 92 83 62 45 36 20 10 12 3 352 340 341 341 36 305 297 269 238 262 176 159 168 173 180 175 182 144 80 153
66 38 101 176 164 255 303 302 332 59 198 119 161 165 130 121 108 120 133 97 82 62 51 37 28 17 10 360 358 342 337 329 334 181 225 165 159 240 77 8 60 111 108 117 133 128 96 341 140
90 232 186 189 31 321 320 269 219 282 106 153 185 120 70 116 139 131 72 66 71 57 44 28 18 11 6 357 341 335 324 335 320 297 162 182 208 192 143 145 235 133 107 87 143 136 124 116 121
248 237 227 93 312 128 336 321 100 101 172 245 199 192 133 140 166 102 86 64 43 49 34 22 13 10 8 349 335 323 325 323 314 309 186 177 174 199 177 172 188 177 187 146 134 136 143 139 129
188 280 26 153 69 329 260 321 136 175 202 240 268 271 165 132 95 85 81 69 75 70 27 16 10 0 3 347 335 326 313 315 303 306 305 178 197 184 188 190 193 188 193 175 163 149 153 122 94
336 346 353 303 70 356 299 273 296 33 0 308 278 264 235 133 93 73 58 69 25 66 50 25 8 3 352 345 342 340 344 340 339 314 320 304 210 182 175 191 179 162 165 151 154 162 142 135 141
315 314 295 312 94 337 283 306 332 32 353 299 215 232 108 90 86 83 83 49 46 53 49 23 18 3 356 344 344 347 338 334 331 342 347 333 322 181 166 177 188 181 163 173 149 99 130 84 112
289 292 316 330 61 315 284 310 90 74 354 7 89 78 101 107 100 94 97 80 54 56 44 24 20 7 348 349 336 316 296 273 267 300 307 294 295 264 165 157 192 180 162 157 158 149 135 115 161
306 62 14 298 322 277 297 247 139 118 89 62 63 66 53 54 45 31 17 33 28 50 42 23 14 2 334 348 329 325 325 327 338 308 317 318 297 289 173 154 177 192 179 178 179 181 176 151 186
309 16 325 301 354 256 95 269 148 139 123 102 80 62 52 38 37 26 9 9 1 42 40 18 358 353 343 336 332 327 309 306 269 276 276 293 297 306 212 174 178 192 187 187 188 182 193 168 179
309 335 283 289 277 292 199 166 153 131 137 123 104 89 70 42 44 28 10 4 18 27 24 2 345 349 340 340 330 316 306 296 298 286 266 261 276 269 297 234 183 186 194 195 189 190 192 194 178
311 298 262 243 261 326 191 123 183 149 135 119 84 62 61 44 37 27 19 14 18 13 1 355 0 346 345 340 335 329 317 315 310 299 302 269 253 253 249 238 228 189 188 187 193 191 204 195 195
308 316 325 343 350 277 55 27 64 74 56 66 63 51 51 43 34 32 20 14 11 2 353 353 354 346 344 348 340 333 323 316 309 305 285 292 255 252 235 231 213 190 196 184 186 198 198 203 171
299 8 159 275 298 290 129 258 151 99 81 77 50 54 41 32 19 18 14 3 355 7 359 356 344 344 349 344 338 328 315 309 306 298 301 292 281 253 232 233 220 203 183 200 188 196 199 199 203
1 260 357 305 260 81 222 95 130 124 93 66 54 40 31 22 20 16 6 0 7 356 343 350 341 341 343 330 330 328 323 314 303 296 293 288 283 253 257 223 215 190 180 181 194 202 194 196 194
262 334 360 291 291 278 272 166 186 169 99 71 49 28 23 16 13 15 7 339 339 330 330 329 335 324 328 332 325 322 325 313 307 301 291 283 282 251 239 234 207 192 188 192 192 183 190 191 196
192 257 221 237 255 252 320 352 68 104 96 31 41 43 13 0 337 314 293 286 287 300 303 311 322 306 316 314 324 320 324 318 303 304 296 291 263 253 225 217 217 199 186 183 182 186 187 195 178
14 280 300 208 301 258 231 260 120 137 164 172 288 83 350 324 314 335 351 354 342 339 333 331 328 325 326 317 314 320 324 320 319 309 306 309 255 267 232 209 201 197 192 184 183 188 186 196 185